Retour au catalogue

SL-8 R/B

ActifLEO
NORAD 4800·ROCKET BODY·🇷🇺 Russia

Lancé Dec 12, 1970 depuis Plesetsk Cosmodrome

Loading…

Prochains Passages (prochaines 24 heures)

TLE

FraisSource: Space-Track

Époque: Sep 14, 2026, 09:35 UTC

1 04800U 70108B   26257.39998074  .00000017  00000-0  38658-4 0  9991
2 04800  74.0222 142.2500 0009468 196.8842 163.1967 13.79015373804374

Suivez SL-8 R/B en temps réel avec AllMySat

Download on the App Store